Time,TemperatureF,DewpointF,PressureIn,WindDirection,WindDirectionDegrees,WindSpeedMPH,WindSpeedGustMPH,Humidity,HourlyPrecipIn,Conditions,Clouds,dailyrainin,SoftwareType,DateUTC
2013-10-08 00:01:00,47.1,39.2,28.08,NE,40,0.0,0.0,74,0.00,,,0.00,Weather View 32 v70,2013-10-08 04:01:00,
2013-10-08 00:06:00,47.1,39.2,28.08,NE,40,0.0,0.0,74,0.00,,,0.00,Weather View 32 v70,2013-10-08 04:06:00,
2013-10-08 00:11:00,46.9,39.1,28.08,NE,40,0.0,0.0,74,0.00,,,0.00,Weather View 32 v70,2013-10-08 04:11:00,
2013-10-08 00:16:00,46.9,39.1,28.08,NE,40,0.0,0.0,74,0.00,,,0.00,Weather View 32 v70,2013-10-08 04:16:00,
2013-10-08 00:21:00,46.8,38.9,28.08,NE,40,0.0,0.0,74,0.00,,,0.00,Weather View 32 v70,2013-10-08 04:21:00,
2013-10-08 00:26:00,46.6,39.1,28.08,NE,40,0.0,0.0,75,0.00,,,0.00,Weather View 32 v70,2013-10-08 04:26:00,
2013-10-08 00:31:00,46.6,39.1,28.08,NE,40,0.0,0.0,75,0.00,,,0.00,Weather View 32 v70,2013-10-08 04:31:00,
2013-10-08 00:36:00,46.8,39.6,28.08,NE,40,0.0,0.0,76,0.00,,,0.00,Weather View 32 v70,2013-10-08 04:36:00,
2013-10-08 00:41:00,46.6,39.4,28.08,NE,40,0.0,0.0,76,0.00,,,0.00,Weather View 32 v70,2013-10-08 04:41:00,
2013-10-08 00:46:00,46.6,39.4,28.08,NE,40,0.0,0.0,76,0.00,,,0.00,Weather View 32 v70,2013-10-08 04:46:00,
2013-10-08 00:51:00,46.6,39.4,28.08,NE,40,0.0,0.0,76,0.00,,,0.00,Weather View 32 v70,2013-10-08 04:51:00,
2013-10-08 00:56:00,46.6,39.4,28.08,NE,40,0.0,0.0,76,0.00,,,0.00,Weather View 32 v70,2013-10-08 04:56:00,
2013-10-08 01:01:00,46.6,39.4,28.08,NE,40,0.0,0.0,76,0.00,,,0.00,Weather View 32 v70,2013-10-08 05:01:00,
2013-10-08 01:06:00,46.6,39.4,28.08,NE,40,0.0,0.0,76,0.00,,,0.00,Weather View 32 v70,2013-10-08 05:06:00,
2013-10-08 01:11:00,46.6,39.7,28.08,NE,40,0.0,0.0,77,0.00,,,0.00,Weather View 32 v70,2013-10-08 05:11:00,
2013-10-08 01:16:00,46.6,39.7,28.08,East,83,0.0,0.0,77,0.00,,,0.00,Weather View 32 v70,2013-10-08 05:16:00,
2013-10-08 01:21:00,46.6,39.7,28.08,South,182,0.0,0.0,77,0.00,,,0.00,Weather View 32 v70,2013-10-08 05:21:00,
2013-10-08 01:26:00,46.6,39.7,28.08,South,182,0.0,0.0,77,0.00,,,0.00,Weather View 32 v70,2013-10-08 05:26:00,
2013-10-08 01:31:00,46.4,39.6,28.08,South,182,0.0,0.0,77,0.00,,,0.00,Weather View 32 v70,2013-10-08 05:31:00,
2013-10-08 01:36:00,46.4,39.6,28.08,South,182,0.0,0.0,77,0.00,,,0.00,Weather View 32 v70,2013-10-08 05:36:00,
2013-10-08 01:41:00,46.4,39.9,28.11,South,182,0.0,0.0,78,0.00,,,0.00,Weather View 32 v70,2013-10-08 05:41:00,
2013-10-08 01:46:00,46.4,39.9,28.11,South,182,0.0,0.0,78,0.00,,,0.00,Weather View 32 v70,2013-10-08 05:46:00,
2013-10-08 01:51:00,46.4,39.9,28.11,South,182,0.0,0.0,78,0.00,,,0.00,Weather View 32 v70,2013-10-08 05:51:00,
2013-10-08 01:56:00,46.2,39.7,28.11,South,182,0.0,0.0,78,0.00,,,0.00,Weather View 32 v70,2013-10-08 05:56:00,
2013-10-08 02:01:00,46.2,39.7,28.11,South,182,0.0,0.0,78,0.00,,,0.00,Weather View 32 v70,2013-10-08 06:01:00,
2013-10-08 02:06:00,46.0,39.6,28.11,South,182,0.0,0.0,78,0.00,,,0.00,Weather View 32 v70,2013-10-08 06:06:00,
2013-10-08 02:11:00,45.9,39.7,28.08,South,182,0.0,0.0,79,0.00,,,0.00,Weather View 32 v70,2013-10-08 06:11:00,
2013-10-08 02:16:00,45.9,39.7,28.08,South,182,0.0,0.0,79,0.00,,,0.00,Weather View 32 v70,2013-10-08 06:16:00,
2013-10-08 02:21:00,45.7,39.5,28.08,South,182,0.0,0.0,79,0.00,,,0.00,Weather View 32 v70,2013-10-08 06:21:00,
2013-10-08 02:26:00,45.7,39.5,28.11,South,182,0.0,0.0,79,0.00,,,0.00,Weather View 32 v70,2013-10-08 06:26:00,
2013-10-08 02:31:00,45.5,39.7,28.11,South,182,0.0,0.0,80,0.00,,,0.00,Weather View 32 v70,2013-10-08 06:31:00,
2013-10-08 02:36:00,45.5,40.0,28.11,South,182,0.0,0.0,81,0.00,,,0.00,Weather View 32 v70,2013-10-08 06:36:00,
2013-10-08 02:41:00,45.3,39.8,28.11,South,182,0.0,0.0,81,0.00,,,0.00,Weather View 32 v70,2013-10-08 06:41:00,
2013-10-08 02:46:00,45.1,40.0,28.11,South,182,0.0,0.0,82,0.00,,,0.00,Weather View 32 v70,2013-10-08 06:46:00,
2013-10-08 02:51:00,45.0,39.8,28.11,South,182,0.0,0.0,82,0.00,,,0.00,Weather View 32 v70,2013-10-08 06:51:00,
2013-10-08 02:56:00,45.0,40.1,28.11,South,182,0.0,0.0,83,0.00,,,0.00,Weather View 32 v70,2013-10-08 06:56:00,
2013-10-08 03:01:00,45.1,40.6,28.11,South,182,0.0,0.0,84,0.00,,,0.00,Weather View 32 v70,2013-10-08 07:01:00,
2013-10-08 03:06:00,45.3,40.8,28.11,South,182,0.0,0.0,84,0.00,,,0.00,Weather View 32 v70,2013-10-08 07:06:00,
2013-10-08 03:11:00,45.3,40.8,28.11,South,182,0.0,0.0,84,0.00,,,0.00,Weather View 32 v70,2013-10-08 07:11:00,
2013-10-08 03:16:00,45.5,40.9,28.11,South,182,0.0,0.0,84,0.00,,,0.00,Weather View 32 v70,2013-10-08 07:16:00,
2013-10-08 03:21:00,45.5,40.9,28.11,South,182,0.0,0.0,84,0.00,,,0.00,Weather View 32 v70,2013-10-08 07:21:00,
2013-10-08 03:26:00,45.5,40.6,28.11,South,182,0.0,0.0,83,0.00,,,0.00,Weather View 32 v70,2013-10-08 07:26:00,
2013-10-08 03:31:00,45.5,40.6,28.11,South,182,0.0,0.0,83,0.00,,,0.00,Weather View 32 v70,2013-10-08 07:31:00,
2013-10-08 03:36:00,45.5,40.6,28.11,South,182,0.0,0.0,83,0.00,,,0.00,Weather View 32 v70,2013-10-08 07:36:00,
2013-10-08 03:41:00,45.5,40.6,28.11,South,182,0.0,0.0,83,0.00,,,0.00,Weather View 32 v70,2013-10-08 07:41:00,
2013-10-08 03:46:00,45.5,40.6,28.11,South,182,0.0,0.0,83,0.00,,,0.00,Weather View 32 v70,2013-10-08 07:46:00,
2013-10-08 03:51:00,45.5,40.6,28.11,South,182,0.0,0.0,83,0.00,,,0.00,Weather View 32 v70,2013-10-08 07:51:00,
2013-10-08 03:56:00,45.3,40.5,28.11,South,182,0.0,0.0,83,0.00,,,0.00,Weather View 32 v70,2013-10-08 07:56:00,
2013-10-08 04:01:00,45.5,40.6,28.11,South,182,0.0,0.0,83,0.00,,,0.00,Weather View 32 v70,2013-10-08 08:01:00,
2013-10-08 04:06:00,45.5,40.6,28.11,South,182,0.0,0.0,83,0.00,,,0.00,Weather View 32 v70,2013-10-08 08:06:00,
2013-10-08 04:11:00,45.9,41.0,28.11,South,182,0.0,0.0,83,0.00,,,0.00,Weather View 32 v70,2013-10-08 08:11:00,
2013-10-08 04:16:00,46.0,41.2,28.11,South,182,0.0,0.0,83,0.00,,,0.00,Weather View 32 v70,2013-10-08 08:16:00,
2013-10-08 04:21:00,46.0,41.2,28.11,South,182,0.0,0.0,83,0.00,,,0.00,Weather View 32 v70,2013-10-08 08:21:00,
2013-10-08 04:26:00,46.2,41.0,28.11,South,182,0.0,0.0,82,0.00,,,0.00,Weather View 32 v70,2013-10-08 08:26:00,
2013-10-08 04:31:00,46.2,41.0,28.11,South,182,0.0,0.0,82,0.00,,,0.00,Weather View 32 v70,2013-10-08 08:31:00,
2013-10-08 04:36:00,46.0,40.5,28.11,South,182,0.0,0.0,81,0.00,,,0.00,Weather View 32 v70,2013-10-08 08:36:00,
2013-10-08 04:41:00,46.0,40.2,28.14,South,182,0.0,0.0,80,0.00,,,0.00,Weather View 32 v70,2013-10-08 08:41:00,
2013-10-08 04:46:00,45.9,40.0,28.14,South,182,0.0,0.0,80,0.00,,,0.00,Weather View 32 v70,2013-10-08 08:46:00,
2013-10-08 04:51:00,45.9,40.0,28.14,South,182,0.0,0.0,80,0.00,,,0.00,Weather View 32 v70,2013-10-08 08:51:00,
2013-10-08 04:56:00,45.9,40.0,28.14,South,182,0.0,0.0,80,0.00,,,0.00,Weather View 32 v70,2013-10-08 08:56:00,
2013-10-08 05:01:00,45.7,39.9,28.14,South,182,0.0,0.0,80,0.00,,,0.00,Weather View 32 v70,2013-10-08 09:01:00,
2013-10-08 05:06:00,45.3,39.5,28.14,South,182,0.0,0.0,80,0.00,,,0.00,Weather View 32 v70,2013-10-08 09:06:00,
2013-10-08 05:11:00,45.1,39.3,28.14,South,182,0.0,0.0,80,0.00,,,0.00,Weather View 32 v70,2013-10-08 09:11:00,
2013-10-08 05:16:00,44.8,39.0,28.14,South,182,0.0,0.0,80,0.00,,,0.00,Weather View 32 v70,2013-10-08 09:16:00,
2013-10-08 05:21:00,44.6,38.8,28.14,South,181,0.0,0.0,80,0.00,,,0.00,Weather View 32 v70,2013-10-08 09:21:00,
2013-10-08 05:26:00,44.6,38.8,28.14,South,182,0.0,0.0,80,0.00,,,0.00,Weather View 32 v70,2013-10-08 09:26:00,
2013-10-08 05:31:00,44.2,38.1,28.14,South,182,0.0,0.0,79,0.00,,,0.00,Weather View 32 v70,2013-10-08 09:31:00,
2013-10-08 05:36:00,44.1,38.3,28.14,South,182,0.0,0.0,80,0.00,,,0.00,Weather View 32 v70,2013-10-08 09:36:00,
2013-10-08 05:41:00,43.7,37.6,28.14,South,182,0.0,0.0,79,0.00,,,0.00,Weather View 32 v70,2013-10-08 09:41:00,
2013-10-08 05:46:00,43.5,37.8,28.14,South,182,0.0,0.0,80,0.00,,,0.00,Weather View 32 v70,2013-10-08 09:46:00,
2013-10-08 05:51:00,43.3,37.6,28.14,South,182,0.0,0.0,80,0.00,,,0.00,Weather View 32 v70,2013-10-08 09:51:00,
2013-10-08 05:56:00,43.3,37.6,28.14,South,182,0.0,0.0,80,0.00,,,0.00,Weather View 32 v70,2013-10-08 09:56:00,
2013-10-08 06:02:00,43.0,37.2,28.14,South,182,0.0,0.0,80,0.00,,,0.00,Weather View 32 v70,2013-10-08 10:02:00,
2013-10-08 06:07:00,43.0,37.2,28.14,South,182,0.0,0.0,80,0.00,,,0.00,Weather View 32 v70,2013-10-08 10:07:00,
2013-10-08 06:12:00,42.8,37.4,28.17,South,182,0.0,0.0,81,0.00,,,0.00,Weather View 32 v70,2013-10-08 10:12:00,
2013-10-08 06:17:00,42.4,36.7,28.17,South,182,0.0,0.0,80,0.00,,,0.00,Weather View 32 v70,2013-10-08 10:17:00,
2013-10-08 06:22:00,42.3,36.5,28.17,South,182,0.0,0.0,80,0.00,,,0.00,Weather View 32 v70,2013-10-08 10:22:00,
2013-10-08 06:27:00,42.3,36.8,28.17,South,182,0.0,0.0,81,0.00,,,0.00,Weather View 32 v70,2013-10-08 10:27:00,
2013-10-08 06:32:00,41.9,36.2,28.17,South,182,0.0,0.0,80,0.00,,,0.00,Weather View 32 v70,2013-10-08 10:32:00,
2013-10-08 06:37:00,41.7,36.3,28.17,South,182,0.0,0.0,81,0.00,,,0.00,Weather View 32 v70,2013-10-08 10:37:00,
2013-10-08 06:42:00,41.5,36.1,28.17,South,182,0.0,0.0,81,0.00,,,0.00,Weather View 32 v70,2013-10-08 10:42:00,
2013-10-08 06:47:00,41.4,35.6,28.17,South,182,0.0,0.0,80,0.00,,,0.00,Weather View 32 v70,2013-10-08 10:47:00,
2013-10-08 06:52:00,41.2,35.8,28.17,South,182,0.0,0.0,81,0.00,,,0.00,Weather View 32 v70,2013-10-08 10:52:00,
2013-10-08 06:57:00,41.4,36.0,28.17,South,182,0.0,0.0,81,0.00,,,0.00,Weather View 32 v70,2013-10-08 10:57:00,
2013-10-08 07:02:00,41.4,36.0,28.17,South,182,0.0,0.0,81,0.00,,,0.00,Weather View 32 v70,2013-10-08 11:02:00,
2013-10-08 07:07:00,41.2,35.8,28.17,South,182,0.0,0.0,81,0.00,,,0.00,Weather View 32 v70,2013-10-08 11:07:00,
2013-10-08 07:12:00,41.2,35.8,28.17,South,182,0.0,0.0,81,0.00,,,0.00,Weather View 32 v70,2013-10-08 11:12:00,
2013-10-08 07:17:00,41.0,35.6,28.17,South,182,0.0,0.0,81,0.00,,,0.00,Weather View 32 v70,2013-10-08 11:17:00,
2013-10-08 07:22:00,40.8,35.4,28.17,South,182,0.0,0.0,81,0.00,,,0.00,Weather View 32 v70,2013-10-08 11:22:00,
2013-10-08 07:27:00,40.8,35.7,28.17,South,182,0.0,0.0,82,0.00,,,0.00,Weather View 32 v70,2013-10-08 11:27:00,
2013-10-08 07:32:00,40.8,35.7,28.17,South,182,0.0,0.0,82,0.00,,,0.00,Weather View 32 v70,2013-10-08 11:32:00,
2013-10-08 07:37:00,40.8,35.7,28.17,South,182,0.0,0.0,82,0.00,,,0.00,Weather View 32 v70,2013-10-08 11:37:00,
2013-10-08 07:42:00,40.6,35.6,28.17,South,182,0.0,0.0,82,0.00,,,0.00,Weather View 32 v70,2013-10-08 11:42:00,
2013-10-08 07:47:00,40.6,35.6,28.17,South,182,0.0,0.0,82,0.00,,,0.00,Weather View 32 v70,2013-10-08 11:47:00,
2013-10-08 07:52:00,40.5,35.4,28.17,South,182,0.0,0.0,82,0.00,,,0.00,Weather View 32 v70,2013-10-08 11:52:00,
2013-10-08 07:57:00,40.5,35.7,28.20,South,182,0.0,0.0,83,0.00,,,0.00,Weather View 32 v70,2013-10-08 11:57:00,
2013-10-08 08:02:00,40.6,35.9,28.20,South,182,0.0,0.0,83,0.00,,,0.00,Weather View 32 v70,2013-10-08 12:02:00,
2013-10-08 08:07:00,40.5,35.7,28.20,South,182,0.0,0.0,83,0.00,,,0.00,Weather View 32 v70,2013-10-08 12:07:00,
2013-10-08 08:12:00,40.5,35.7,28.20,South,182,0.0,0.0,83,0.00,,,0.00,Weather View 32 v70,2013-10-08 12:12:00,
2013-10-08 08:17:00,40.6,35.9,28.20,South,182,0.0,0.0,83,0.00,,,0.00,Weather View 32 v70,2013-10-08 12:17:00,
2013-10-08 08:22:00,40.6,36.2,28.20,South,182,0.0,0.0,84,0.00,,,0.00,Weather View 32 v70,2013-10-08 12:22:00,
2013-10-08 08:27:00,41.0,36.5,28.20,South,182,0.0,0.0,84,0.00,,,0.00,Weather View 32 v70,2013-10-08 12:27:00,
2013-10-08 08:32:00,41.2,36.7,28.20,South,182,0.0,0.0,84,0.00,,,0.00,Weather View 32 v70,2013-10-08 12:32:00,
2013-10-08 08:37:00,41.5,37.4,28.20,South,182,0.0,0.0,85,0.00,,,0.00,Weather View 32 v70,2013-10-08 12:37:00,
2013-10-08 08:42:00,41.9,37.7,28.20,South,182,0.0,0.0,85,0.00,,,0.00,Weather View 32 v70,2013-10-08 12:42:00,
2013-10-08 08:47:00,42.1,37.9,28.20,South,182,0.0,0.0,85,0.00,,,0.00,Weather View 32 v70,2013-10-08 12:47:00,
2013-10-08 08:52:00,42.4,38.2,28.20,South,182,0.0,0.0,85,0.00,,,0.00,Weather View 32 v70,2013-10-08 12:52:00,
2013-10-08 08:57:00,42.8,38.6,28.20,South,182,0.0,0.0,85,0.00,,,0.00,Weather View 32 v70,2013-10-08 12:57:00,
2013-10-08 09:02:00,43.2,39.3,28.20,South,182,0.0,0.0,86,0.00,,,0.00,Weather View 32 v70,2013-10-08 13:02:00,
2013-10-08 09:07:00,43.9,40.0,28.20,South,182,0.0,0.0,86,0.00,,,0.00,Weather View 32 v70,2013-10-08 13:07:00,
2013-10-08 09:12:00,44.6,41.0,28.20,South,182,0.0,0.0,87,0.00,,,0.00,Weather View 32 v70,2013-10-08 13:12:00,
2013-10-08 09:17:00,45.1,41.5,28.20,South,182,0.0,0.0,87,0.00,,,0.00,Weather View 32 v70,2013-10-08 13:17:00,
2013-10-08 09:22:00,45.7,42.0,28.20,South,182,0.0,0.0,87,0.00,,,0.00,Weather View 32 v70,2013-10-08 13:22:00,
2013-10-08 09:27:00,46.2,42.6,28.20,South,182,0.0,0.0,87,0.00,,,0.00,Weather View 32 v70,2013-10-08 13:27:00,
2013-10-08 09:32:00,46.6,43.2,28.20,South,182,0.0,0.0,88,0.00,,,0.00,Weather View 32 v70,2013-10-08 13:32:00,
2013-10-08 09:37:00,47.1,43.7,28.20,South,182,0.0,0.0,88,0.00,,,0.00,Weather View 32 v70,2013-10-08 13:37:00,
2013-10-08 09:42:00,47.8,44.7,28.23,South,182,0.0,0.0,89,0.00,,,0.00,Weather View 32 v70,2013-10-08 13:42:00,
2013-10-08 09:47:00,48.4,45.3,28.23,South,182,0.0,0.0,89,0.00,,,0.00,Weather View 32 v70,2013-10-08 13:47:00,
2013-10-08 09:52:00,48.9,45.8,28.23,South,182,0.0,0.0,89,0.00,,,0.00,Weather View 32 v70,2013-10-08 13:52:00,
2013-10-08 09:57:00,49.3,45.6,28.20,South,182,0.0,0.0,87,0.00,,,0.00,Weather View 32 v70,2013-10-08 13:57:00,
2013-10-08 10:02:00,49.8,45.5,28.20,South,182,0.0,0.0,85,0.00,,,0.00,Weather View 32 v70,2013-10-08 14:02:00,
2013-10-08 10:07:00,50.4,44.7,28.20,South,182,0.0,0.0,81,0.00,,,0.00,Weather View 32 v70,2013-10-08 14:07:00,
2013-10-08 10:12:00,50.7,43.4,28.20,South,182,0.0,0.0,76,0.00,,,0.00,Weather View 32 v70,2013-10-08 14:12:00,
2013-10-08 10:17:00,51.1,41.6,28.20,South,182,0.0,0.0,70,0.00,,,0.00,Weather View 32 v70,2013-10-08 14:17:00,
2013-10-08 10:22:00,51.8,41.9,28.20,South,181,0.0,0.0,69,0.00,,,0.00,Weather View 32 v70,2013-10-08 14:22:00,
2013-10-08 10:27:00,52.3,40.9,28.23,South,182,0.0,0.0,65,0.00,,,0.00,Weather View 32 v70,2013-10-08 14:27:00,
2013-10-08 10:32:00,52.9,39.8,28.23,South,182,0.0,0.0,61,0.00,,,0.00,Weather View 32 v70,2013-10-08 14:32:00,
2013-10-08 10:36:00,53.6,39.2,28.23,South,190,0.0,0.0,58,0.00,,,0.00,Weather View 32 v70,2013-10-08 14:36:00,
2013-10-08 10:41:00,54.3,38.0,28.23,South,190,0.0,0.0,54,0.00,,,0.00,Weather View 32 v70,2013-10-08 14:41:00,
2013-10-08 10:46:00,55.0,38.7,28.23,South,190,0.0,0.0,54,0.00,,,0.00,Weather View 32 v70,2013-10-08 14:46:00,
2013-10-08 10:51:00,55.9,39.5,28.23,South,190,0.0,0.0,54,0.00,,,0.00,Weather View 32 v70,2013-10-08 14:51:00,
2013-10-08 10:56:00,56.8,37.3,28.23,South,190,0.0,0.0,48,0.00,,,0.00,Weather View 32 v70,2013-10-08 14:56:00,
2013-10-08 11:01:00,57.9,37.2,28.23,South,190,0.0,3.0,46,0.00,,,0.00,Weather View 32 v70,2013-10-08 15:01:00,
2013-10-08 11:06:00,58.6,36.2,28.23,South,191,0.0,3.0,43,0.00,,,0.00,Weather View 32 v70,2013-10-08 15:06:00,
2013-10-08 11:11:00,59.4,35.6,28.20,South,181,0.0,3.0,41,0.00,,,0.00,Weather View 32 v70,2013-10-08 15:11:00,
2013-10-08 11:16:00,59.9,35.5,28.20,SSW,201,0.0,3.0,40,0.00,,,0.00,Weather View 32 v70,2013-10-08 15:16:00,
2013-10-08 11:21:00,60.4,34.0,28.20,SSW,201,0.0,3.0,37,0.00,,,0.00,Weather View 32 v70,2013-10-08 15:21:00,
2013-10-08 11:26:00,60.8,35.6,28.23,SSW,199,0.0,3.0,39,0.00,,,0.00,Weather View 32 v70,2013-10-08 15:26:00,
2013-10-08 11:31:00,61.2,33.2,28.23,South,187,3.0,3.0,35,0.00,,,0.00,Weather View 32 v70,2013-10-08 15:31:00,
2013-10-08 11:36:00,61.5,33.5,28.23,South,187,0.0,3.0,35,0.00,,,0.00,Weather View 32 v70,2013-10-08 15:36:00,
2013-10-08 11:41:00,61.3,34.1,28.23,South,187,0.0,3.0,36,0.00,,,0.00,Weather View 32 v70,2013-10-08 15:41:00,
2013-10-08 11:46:00,61.2,33.9,28.23,South,187,3.0,3.0,36,0.00,,,0.00,Weather View 32 v70,2013-10-08 15:46:00,
2013-10-08 11:51:00,61.0,33.1,28.23,SE,129,2.0,4.0,35,0.00,,,0.00,Weather View 32 v70,2013-10-08 15:51:00,
2013-10-08 11:56:00,61.0,33.1,28.20,SSW,201,0.0,4.0,35,0.00,,,0.00,Weather View 32 v70,2013-10-08 15:56:00,
2013-10-08 12:01:00,61.0,33.8,28.20,SSW,201,0.0,4.0,36,0.00,,,0.00,Weather View 32 v70,2013-10-08 16:01:00,
2013-10-08 12:06:00,61.0,33.1,28.20,SSW,211,0.0,4.0,35,0.00,,,0.00,Weather View 32 v70,2013-10-08 16:06:00,
2013-10-08 12:11:00,61.3,33.4,28.23,SSW,211,0.0,4.0,35,0.00,,,0.00,Weather View 32 v70,2013-10-08 16:11:00,
2013-10-08 12:16:00,61.5,32.8,28.23,SSW,201,0.0,4.0,34,0.00,,,0.00,Weather View 32 v70,2013-10-08 16:16:00,
2013-10-08 12:21:00,61.5,32.8,28.23,SSW,196,3.0,4.0,34,0.00,,,0.00,Weather View 32 v70,2013-10-08 16:21:00,
2013-10-08 12:26:00,61.5,32.8,28.23,SSW,204,3.0,4.0,34,0.00,,,0.00,Weather View 32 v70,2013-10-08 16:26:00,
2013-10-08 12:31:00,61.7,32.2,28.23,SSE,162,0.0,4.0,33,0.00,,,0.00,Weather View 32 v70,2013-10-08 16:31:00,
2013-10-08 12:36:00,61.7,31.5,28.23,SSW,200,4.0,4.0,32,0.00,,,0.00,Weather View 32 v70,2013-10-08 16:36:00,
2013-10-08 12:41:00,61.9,31.6,28.23,SSE,159,0.0,5.0,32,0.00,,,0.00,Weather View 32 v70,2013-10-08 16:41:00,
2013-10-08 12:46:00,62.1,32.6,28.23,South,187,0.0,5.0,33,0.00,,,0.00,Weather View 32 v70,2013-10-08 16:46:00,
2013-10-08 12:51:00,62.4,32.9,28.23,South,187,0.0,5.0,33,0.00,,,0.00,Weather View 32 v70,2013-10-08 16:51:00,
2013-10-08 12:56:00,63.0,31.8,28.23,South,182,0.0,5.0,31,0.00,,,0.00,Weather View 32 v70,2013-10-08 16:56:00,
2013-10-08 13:02:00,63.3,30.4,28.23,ESE,114,0.0,5.0,29,0.00,,,0.00,Weather View 32 v70,2013-10-08 17:02:00,
2013-10-08 13:07:00,63.5,29.7,28.23,SSW,210,3.0,5.0,28,0.00,,,0.00,Weather View 32 v70,2013-10-08 17:07:00,
2013-10-08 13:12:00,64.2,32.1,28.20,South,191,3.0,5.0,30,0.00,,,0.00,Weather View 32 v70,2013-10-08 17:12:00,
2013-10-08 13:17:00,64.9,33.5,28.20,SSW,197,0.0,5.0,31,0.00,,,0.00,Weather View 32 v70,2013-10-08 17:17:00,
2013-10-08 13:22:00,66.0,31.0,28.20,SSW,208,0.0,5.0,27,0.00,,,0.00,Weather View 32 v70,2013-10-08 17:22:00,
2013-10-08 13:27:00,66.9,31.8,28.20,SSW,197,4.0,5.0,27,0.00,,,0.00,Weather View 32 v70,2013-10-08 17:27:00,
2013-10-08 13:32:00,67.8,30.6,28.20,SE,139,0.0,5.0,25,0.00,,,0.00,Weather View 32 v70,2013-10-08 17:32:00,
2013-10-08 13:37:00,68.7,35.1,28.20,East,84,0.0,5.0,29,0.00,,,0.00,Weather View 32 v70,2013-10-08 17:37:00,
2013-10-08 13:42:00,68.9,29.5,28.20,SSW,196,4.0,5.0,23,0.00,,,0.00,Weather View 32 v70,2013-10-08 17:42:00,
2013-10-08 13:47:00,68.5,31.2,28.20,South,171,0.0,6.0,25,0.00,,,0.00,Weather View 32 v70,2013-10-08 17:47:00,
2013-10-08 13:52:00,68.5,31.2,28.20,SSW,195,3.0,6.0,25,0.00,,,0.00,Weather View 32 v70,2013-10-08 17:52:00,
2013-10-08 13:57:00,68.4,31.1,28.20,ESE,114,3.0,6.0,25,0.00,,,0.00,Weather View 32 v70,2013-10-08 17:57:00,
2013-10-08 14:02:00,68.4,30.1,28.20,SE,128,4.0,6.0,24,0.00,,,0.00,Weather View 32 v70,2013-10-08 18:02:00,
2013-10-08 14:07:00,68.5,30.2,28.20,East,99,0.0,6.0,24,0.00,,,0.00,Weather View 32 v70,2013-10-08 18:07:00,
2013-10-08 14:12:00,68.9,29.5,28.20,SSW,202,2.0,6.0,23,0.00,,,0.00,Weather View 32 v70,2013-10-08 18:12:00,
2013-10-08 14:17:00,68.0,30.8,28.20,SSW,194,2.0,6.0,25,0.00,,,0.00,Weather View 32 v70,2013-10-08 18:17:00,
2013-10-08 14:22:00,67.5,29.3,28.20,SW,219,3.0,6.0,24,0.00,,,0.00,Weather View 32 v70,2013-10-08 18:22:00,
2013-10-08 14:27:00,66.9,30.8,28.20,SSW,202,0.0,6.0,26,0.00,,,0.00,Weather View 32 v70,2013-10-08 18:27:00,
2013-10-08 14:32:00,66.9,30.8,28.20,SSW,202,0.0,6.0,26,0.00,,,0.00,Weather View 32 v70,2013-10-08 18:32:00,
2013-10-08 14:37:00,66.6,30.5,28.20,SSW,208,3.0,6.0,26,0.00,,,0.00,Weather View 32 v70,2013-10-08 18:37:00,
2013-10-08 14:42:00,66.4,31.3,28.20,SSW,208,0.0,6.0,27,0.00,,,0.00,Weather View 32 v70,2013-10-08 18:42:00,
2013-10-08 14:47:00,66.9,30.8,28.20,SSE,168,3.0,5.0,26,0.00,,,0.00,Weather View 32 v70,2013-10-08 18:47:00,
2013-10-08 14:52:00,66.9,31.8,28.20,SSW,203,3.0,5.0,27,0.00,,,0.00,Weather View 32 v70,2013-10-08 18:52:00,
2013-10-08 14:57:00,66.2,30.2,28.20,SE,141,0.0,5.0,26,0.00,,,0.00,Weather View 32 v70,2013-10-08 18:57:00,
2013-10-08 15:02:00,66.0,29.1,28.20,SE,138,3.0,5.0,25,0.00,,,0.00,Weather View 32 v70,2013-10-08 19:02:00,
2013-10-08 15:07:00,65.7,30.7,28.20,SE,129,3.0,5.0,27,0.00,,,0.00,Weather View 32 v70,2013-10-08 19:07:00,
2013-10-08 15:12:00,65.8,29.9,28.20,SSE,147,0.0,5.0,26,0.00,,,0.00,Weather View 32 v70,2013-10-08 19:12:00,
2013-10-08 15:17:00,65.8,29.9,28.20,SSW,198,4.0,4.0,26,0.00,,,0.00,Weather View 32 v70,2013-10-08 19:17:00,
2013-10-08 15:22:00,65.8,30.8,28.20,SSW,196,3.0,4.0,27,0.00,,,0.00,Weather View 32 v70,2013-10-08 19:22:00,
2013-10-08 15:27:00,65.7,30.7,28.20,SSW,207,3.0,5.0,27,0.00,,,0.00,Weather View 32 v70,2013-10-08 19:27:00,
2013-10-08 15:32:00,65.5,30.5,28.20,SSW,205,3.0,5.0,27,0.00,,,0.00,Weather View 32 v70,2013-10-08 19:32:00,
2013-10-08 15:37:00,65.5,30.5,28.20,SSW,203,4.0,5.0,27,0.00,,,0.00,Weather View 32 v70,2013-10-08 19:37:00,
2013-10-08 15:42:00,65.5,31.4,28.17,ESE,117,0.0,6.0,28,0.00,,,0.00,Weather View 32 v70,2013-10-08 19:42:00,
2013-10-08 15:47:00,65.5,30.5,28.17,South,177,0.0,6.0,27,0.00,,,0.00,Weather View 32 v70,2013-10-08 19:47:00,
2013-10-08 15:52:00,65.5,32.3,28.17,SSW,206,0.0,6.0,29,0.00,,,0.00,Weather View 32 v70,2013-10-08 19:52:00,
2013-10-08 15:57:00,65.7,31.6,28.20,ESE,113,3.0,6.0,28,0.00,,,0.00,Weather View 32 v70,2013-10-08 19:57:00,
2013-10-08 16:02:00,65.5,30.5,28.20,SE,125,0.0,6.0,27,0.00,,,0.00,Weather View 32 v70,2013-10-08 20:02:00,
2013-10-08 16:07:00,65.5,29.6,28.20,SSW,192,3.0,6.0,26,0.00,,,0.00,Weather View 32 v70,2013-10-08 20:07:00,
2013-10-08 16:12:00,65.5,30.5,28.20,SSW,208,3.0,6.0,27,0.00,,,0.00,Weather View 32 v70,2013-10-08 20:12:00,
2013-10-08 16:17:00,65.5,29.6,28.20,SSW,196,3.0,6.0,26,0.00,,,0.00,Weather View 32 v70,2013-10-08 20:17:00,
2013-10-08 16:22:00,65.3,30.4,28.20,SSW,202,3.0,6.0,27,0.00,,,0.00,Weather View 32 v70,2013-10-08 20:22:00,
2013-10-08 16:27:00,65.1,30.2,28.20,SSW,205,3.0,6.0,27,0.00,,,0.00,Weather View 32 v70,2013-10-08 20:27:00,
2013-10-08 16:32:00,65.3,31.3,28.20,SW,216,0.0,6.0,28,0.00,,,0.00,Weather View 32 v70,2013-10-08 20:32:00,
2013-10-08 16:37:00,65.1,30.2,28.20,SSW,211,3.0,6.0,27,0.00,,,0.00,Weather View 32 v70,2013-10-08 20:37:00,
2013-10-08 16:42:00,65.1,30.2,28.20,SSW,209,0.0,6.0,27,0.00,,,0.00,Weather View 32 v70,2013-10-08 20:42:00,
2013-10-08 16:47:00,65.1,31.1,28.20,SW,215,0.0,4.0,28,0.00,,,0.00,Weather View 32 v70,2013-10-08 20:47:00,
2013-10-08 16:52:00,65.1,30.2,28.20,SSW,192,3.0,4.0,27,0.00,,,0.00,Weather View 32 v70,2013-10-08 20:52:00,
2013-10-08 16:57:00,65.1,30.2,28.20,SSW,192,0.0,4.0,27,0.00,,,0.00,Weather View 32 v70,2013-10-08 20:57:00,
2013-10-08 17:02:00,64.9,30.1,28.20,SSW,192,0.0,4.0,27,0.00,,,0.00,Weather View 32 v70,2013-10-08 21:02:00,
2013-10-08 17:07:00,65.1,30.2,28.20,SSW,206,2.0,4.0,27,0.00,,,0.00,Weather View 32 v70,2013-10-08 21:07:00,
2013-10-08 17:12:00,64.9,31.0,28.17,SSW,206,0.0,4.0,28,0.00,,,0.00,Weather View 32 v70,2013-10-08 21:12:00,
2013-10-08 17:17:00,64.9,31.0,28.17,SSW,206,0.0,4.0,28,0.00,,,0.00,Weather View 32 v70,2013-10-08 21:17:00,
2013-10-08 17:22:00,64.8,32.5,28.17,SSW,206,0.0,4.0,30,0.00,,,0.00,Weather View 32 v70,2013-10-08 21:22:00,
2013-10-08 17:27:00,64.6,29.8,28.20,South,190,2.0,4.0,27,0.00,,,0.00,Weather View 32 v70,2013-10-08 21:27:00,
2013-10-08 17:32:00,64.4,31.4,28.20,South,190,0.0,4.0,29,0.00,,,0.00,Weather View 32 v70,2013-10-08 21:32:00,
2013-10-08 17:37:00,64.4,30.5,28.20,South,189,0.0,4.0,28,0.00,,,0.00,Weather View 32 v70,2013-10-08 21:37:00,
2013-10-08 17:42:00,64.2,31.2,28.20,South,189,0.0,4.0,29,0.00,,,0.00,Weather View 32 v70,2013-10-08 21:42:00,
2013-10-08 17:47:00,64.2,31.2,28.20,SSW,196,0.0,4.0,29,0.00,,,0.00,Weather View 32 v70,2013-10-08 21:47:00,
2013-10-08 17:52:00,63.9,32.6,28.20,SSW,196,0.0,4.0,31,0.00,,,0.00,Weather View 32 v70,2013-10-08 21:52:00,
2013-10-08 17:57:00,63.7,31.6,28.17,SSW,204,0.0,4.0,30,0.00,,,0.00,Weather View 32 v70,2013-10-08 21:57:00,
2013-10-08 18:02:00,63.5,33.0,28.17,SSW,204,0.0,4.0,32,0.00,,,0.00,Weather View 32 v70,2013-10-08 22:02:00,
2013-10-08 18:07:00,63.1,33.5,28.17,SSW,204,0.0,4.0,33,0.00,,,0.00,Weather View 32 v70,2013-10-08 22:07:00,
2013-10-08 18:12:00,63.1,31.9,28.17,SSW,204,0.0,3.0,31,0.00,,,0.00,Weather View 32 v70,2013-10-08 22:12:00,
2013-10-08 18:17:00,63.0,32.6,28.17,SSW,204,0.0,3.0,32,0.00,,,0.00,Weather View 32 v70,2013-10-08 22:17:00,
2013-10-08 18:22:00,62.6,33.8,28.17,SSW,204,0.0,3.0,34,0.00,,,0.00,Weather View 32 v70,2013-10-08 22:22:00,
2013-10-08 18:27:00,62.2,33.5,28.17,SSW,204,0.0,3.0,34,0.00,,,0.00,Weather View 32 v70,2013-10-08 22:27:00,
2013-10-08 18:32:00,61.9,33.1,28.17,SSW,204,0.0,3.0,34,0.00,,,0.00,Weather View 32 v70,2013-10-08 22:32:00,
2013-10-08 18:37:00,61.5,32.8,28.17,SSW,204,0.0,3.0,34,0.00,,,0.00,Weather View 32 v70,2013-10-08 22:37:00,
2013-10-08 18:42:00,61.2,33.2,28.20,SSW,204,0.0,3.0,35,0.00,,,0.00,Weather View 32 v70,2013-10-08 22:42:00,
2013-10-08 18:47:00,60.8,32.9,28.20,SSW,204,0.0,3.0,35,0.00,,,0.00,Weather View 32 v70,2013-10-08 22:47:00,
2013-10-08 18:52:00,60.4,32.6,28.20,SSW,204,0.0,3.0,35,0.00,,,0.00,Weather View 32 v70,2013-10-08 22:52:00,
2013-10-08 18:57:00,59.9,32.8,28.17,SSW,204,0.0,0.0,36,0.00,,,0.00,Weather View 32 v70,2013-10-08 22:57:00,
2013-10-08 19:02:00,59.4,33.0,28.17,SSW,204,0.0,0.0,37,0.00,,,0.00,Weather View 32 v70,2013-10-08 23:02:00,
2013-10-08 19:07:00,59.0,32.7,28.17,SSW,204,0.0,0.0,37,0.00,,,0.00,Weather View 32 v70,2013-10-08 23:07:00,
2013-10-08 19:12:00,58.6,33.1,28.20,SSW,204,0.0,0.0,38,0.00,,,0.00,Weather View 32 v70,2013-10-08 23:12:00,
2013-10-08 19:17:00,58.3,33.4,28.20,SSW,204,0.0,0.0,39,0.00,,,0.00,Weather View 32 v70,2013-10-08 23:17:00,
2013-10-08 19:22:00,58.1,33.2,28.20,SSW,204,0.0,0.0,39,0.00,,,0.00,Weather View 32 v70,2013-10-08 23:22:00,
2013-10-08 19:27:00,57.9,33.7,28.20,SSW,204,0.0,0.0,40,0.00,,,0.00,Weather View 32 v70,2013-10-08 23:27:00,
2013-10-08 19:32:00,57.9,33.1,28.20,SSW,204,0.0,0.0,39,0.00,,,0.00,Weather View 32 v70,2013-10-08 23:32:00,
2013-10-08 19:37:00,57.7,33.5,28.20,SSW,204,0.0,0.0,40,0.00,,,0.00,Weather View 32 v70,2013-10-08 23:37:00,
2013-10-08 19:42:00,57.6,34.0,28.20,SSW,204,0.0,0.0,41,0.00,,,0.00,Weather View 32 v70,2013-10-08 23:42:00,
2013-10-08 19:47:00,57.2,33.7,28.20,SSW,204,0.0,0.0,41,0.00,,,0.00,Weather View 32 v70,2013-10-08 23:47:00,
2013-10-08 19:52:00,57.0,33.5,28.20,SSW,204,0.0,0.0,41,0.00,,,0.00,Weather View 32 v70,2013-10-08 23:52:00,
2013-10-08 19:57:00,56.8,32.7,28.20,SSW,204,0.0,0.0,40,0.00,,,0.00,Weather View 32 v70,2013-10-08 23:57:00,
2013-10-08 20:02:00,56.7,32.6,28.20,SSW,204,0.0,0.0,40,0.00,,,0.00,Weather View 32 v70,2013-10-09 00:02:00,
2013-10-08 20:07:00,56.5,33.0,28.20,SSW,204,0.0,0.0,41,0.00,,,0.00,Weather View 32 v70,2013-10-09 00:07:00,
2013-10-08 20:12:00,56.1,33.9,28.20,SSW,204,0.0,0.0,43,0.00,,,0.00,Weather View 32 v70,2013-10-09 00:12:00,
2013-10-08 20:17:00,55.6,34.0,28.20,SSW,204,0.0,0.0,44,0.00,,,0.00,Weather View 32 v70,2013-10-09 00:17:00,
2013-10-08 20:22:00,55.4,33.2,28.20,SSW,204,0.0,0.0,43,0.00,,,0.00,Weather View 32 v70,2013-10-09 00:22:00,
2013-10-08 20:27:00,55.0,33.5,28.20,SSW,204,0.0,0.0,44,0.00,,,0.00,Weather View 32 v70,2013-10-09 00:27:00,
2013-10-08 20:32:00,54.7,33.7,28.20,SSW,204,0.0,0.0,45,0.00,,,0.00,Weather View 32 v70,2013-10-09 00:32:00,
2013-10-08 20:37:00,54.3,33.9,28.20,SSW,204,0.0,0.0,46,0.00,,,0.00,Weather View 32 v70,2013-10-09 00:37:00,
2013-10-08 20:42:00,54.1,34.3,28.20,SSW,204,0.0,0.0,47,0.00,,,0.00,Weather View 32 v70,2013-10-09 00:42:00,
2013-10-08 20:47:00,54.1,33.8,28.20,SSW,204,0.0,0.0,46,0.00,,,0.00,Weather View 32 v70,2013-10-09 00:47:00,
2013-10-08 20:52:00,54.0,33.6,28.20,SSW,204,0.0,0.0,46,0.00,,,0.00,Weather View 32 v70,2013-10-09 00:52:00,
2013-10-08 20:57:00,54.1,33.8,28.20,SSW,204,0.0,0.0,46,0.00,,,0.00,Weather View 32 v70,2013-10-09 00:57:00,
2013-10-08 21:02:00,54.0,33.1,28.20,SSW,204,0.0,0.0,45,0.00,,,0.00,Weather View 32 v70,2013-10-09 01:02:00,
2013-10-08 21:07:00,54.0,33.1,28.20,SSW,204,0.0,0.0,45,0.00,,,0.00,Weather View 32 v70,2013-10-09 01:07:00,
2013-10-08 21:12:00,53.8,32.9,28.20,SSW,204,0.0,0.0,45,0.00,,,0.00,Weather View 32 v70,2013-10-09 01:12:00,
2013-10-08 21:17:00,53.6,32.7,28.20,SSW,204,0.0,0.0,45,0.00,,,0.00,Weather View 32 v70,2013-10-09 01:17:00,
2013-10-08 21:22:00,53.6,32.7,28.20,SSW,204,0.0,0.0,45,0.00,,,0.00,Weather View 32 v70,2013-10-09 01:22:00,
2013-10-08 21:27:00,53.4,32.0,28.20,SSW,204,0.0,0.0,44,0.00,,,0.00,Weather View 32 v70,2013-10-09 01:27:00,
2013-10-08 21:32:00,53.2,31.8,28.20,SSW,204,0.0,0.0,44,0.00,,,0.00,Weather View 32 v70,2013-10-09 01:32:00,
2013-10-08 21:37:00,53.2,31.8,28.20,SSW,204,0.0,0.0,44,0.00,,,0.00,Weather View 32 v70,2013-10-09 01:37:00,
2013-10-08 21:42:00,52.9,32.6,28.23,SSW,204,0.0,0.0,46,0.00,,,0.00,Weather View 32 v70,2013-10-09 01:42:00,
2013-10-08 21:47:00,52.3,32.1,28.23,SSW,204,0.0,0.0,46,0.00,,,0.00,Weather View 32 v70,2013-10-09 01:47:00,
2013-10-08 21:52:00,52.2,32.5,28.23,SSW,204,0.0,0.0,47,0.00,,,0.00,Weather View 32 v70,2013-10-09 01:52:00,
2013-10-08 21:57:00,51.6,32.5,28.20,SSW,204,0.0,0.0,48,0.00,,,0.00,Weather View 32 v70,2013-10-09 01:57:00,
2013-10-08 22:02:00,51.1,32.5,28.20,SSW,204,0.0,0.0,49,0.00,,,0.00,Weather View 32 v70,2013-10-09 02:02:00,
2013-10-08 22:07:00,50.7,33.2,28.20,SSW,204,0.0,0.0,51,0.00,,,0.00,Weather View 32 v70,2013-10-09 02:07:00,
2013-10-08 22:12:00,50.5,33.5,28.23,SSW,204,0.0,0.0,52,0.00,,,0.00,Weather View 32 v70,2013-10-09 02:12:00,
2013-10-08 22:17:00,50.4,33.8,28.23,SSW,204,0.0,0.0,53,0.00,,,0.00,Weather View 32 v70,2013-10-09 02:17:00,
2013-10-08 22:22:00,50.2,33.7,28.23,SSW,204,0.0,0.0,53,0.00,,,0.00,Weather View 32 v70,2013-10-09 02:22:00,
2013-10-08 22:27:00,49.8,33.8,28.23,SSW,204,0.0,0.0,54,0.00,,,0.00,Weather View 32 v70,2013-10-09 02:27:00,
2013-10-08 22:32:00,49.8,33.8,28.23,SSW,204,0.0,0.0,54,0.00,,,0.00,Weather View 32 v70,2013-10-09 02:32:00,
2013-10-08 22:37:00,49.8,33.3,28.23,SSW,204,0.0,0.0,53,0.00,,,0.00,Weather View 32 v70,2013-10-09 02:37:00,
2013-10-08 22:42:00,50.0,33.0,28.20,SSW,204,0.0,0.0,52,0.00,,,0.00,Weather View 32 v70,2013-10-09 02:42:00,
2013-10-08 22:47:00,50.0,33.0,28.20,SSW,204,0.0,0.0,52,0.00,,,0.00,Weather View 32 v70,2013-10-09 02:47:00,
2013-10-08 22:52:00,50.0,33.0,28.20,SSW,204,0.0,0.0,52,0.00,,,0.00,Weather View 32 v70,2013-10-09 02:52:00,
2013-10-08 22:57:00,50.0,33.0,28.23,SSW,204,0.0,0.0,52,0.00,,,0.00,Weather View 32 v70,2013-10-09 02:57:00,
2013-10-08 23:02:00,49.8,32.9,28.23,SSW,204,0.0,0.0,52,0.00,,,0.00,Weather View 32 v70,2013-10-09 03:02:00,
2013-10-08 23:07:00,49.8,33.3,28.23,SSW,204,0.0,0.0,53,0.00,,,0.00,Weather View 32 v70,2013-10-09 03:07:00,
2013-10-08 23:12:00,49.6,33.2,28.23,SSW,204,0.0,0.0,53,0.00,,,0.00,Weather View 32 v70,2013-10-09 03:12:00,
2013-10-08 23:17:00,49.5,33.0,28.23,SSW,204,0.0,0.0,53,0.00,,,0.00,Weather View 32 v70,2013-10-09 03:17:00,
2013-10-08 23:22:00,49.5,33.0,28.23,SSW,204,0.0,0.0,53,0.00,,,0.00,Weather View 32 v70,2013-10-09 03:22:00,
2013-10-08 23:27:00,49.3,32.8,28.23,SSW,204,0.0,0.0,53,0.00,,,0.00,Weather View 32 v70,2013-10-09 03:27:00,
2013-10-08 23:32:00,48.7,32.8,28.23,SSW,204,0.0,0.0,54,0.00,,,0.00,Weather View 32 v70,2013-10-09 03:32:00,
2013-10-08 23:37:00,48.4,33.4,28.23,SSW,204,0.0,0.0,56,0.00,,,0.00,Weather View 32 v70,2013-10-09 03:37:00,
2013-10-08 23:42:00,48.2,33.7,28.23,SSW,204,0.0,0.0,57,0.00,,,0.00,Weather View 32 v70,2013-10-09 03:42:00,
2013-10-08 23:47:00,48.0,33.9,28.23,SSW,204,0.0,0.0,58,0.00,,,0.00,Weather View 32 v70,2013-10-09 03:47:00,
2013-10-08 23:52:00,48.2,34.5,28.23,SSW,204,0.0,0.0,59,0.00,,,0.00,Weather View 32 v70,2013-10-09 03:52:00,
2013-10-08 23:57:00,48.0,34.4,28.23,SSW,204,0.0,0.0,59,0.00,,,0.00,Weather View 32 v70,2013-10-09 03:57:00,